Location: Antoign�
(47.0844°N, 0.1131°W)
Time: 06:43:32
(UTC+00:00)

Cosmos 44 Rocket - Pass Details

Date: 03 March 2021
Orbit: 636 x 754 km, 65.1° (Epoch: 12 April)

Event Time Altitude Azimuth Distance (km) Brightness Sun altitude
Rises 18:19:12 0° 323° (NW) 3,208 7.2 -5.9°
Reaches altitude 10° 18:21:36 10° 326° (NW) 2,285 6.4 -6.4°
Maximum altitude 18:26:52 76° 52° (NE) 781 3.5 -7.3°
Drops below altitude 10° 18:32:04 10° 138° (SE) 2,258 5.6 -8.1°
Sets 18:34:26 0° 140° (SE) 3,168 6.3 -8.5°
